TimeCST,TemperatureF,Dew PointF,Humidity,Sea Level PressureIn,VisibilityMPH,Wind Direction,Wind SpeedMPH,Gust SpeedMPH,PrecipitationIn,Events,Conditions,WindDirDegrees,DateUTC
12:15 AM,32.0,24.8,75,29.97,10.0,NNE,6.9,-,N/A,,Overcast,20,2012-12-08 06:15:00
12:35 AM,32.0,23.0,69,29.97,10.0,NNE,6.9,-,N/A,,Overcast,30,2012-12-08 06:35:00
12:55 AM,32.0,23.0,69,29.96,10.0,NNE,8.1,-,N/A,,Overcast,20,2012-12-08 06:55:00
1:15 AM,32.0,23.0,69,29.97,10.0,North,6.9,-,N/A,,Overcast,10,2012-12-08 07:15:00
1:35 AM,32.0,23.0,69,29.97,10.0,North,6.9,-,N/A,,Overcast,10,2012-12-08 07:35:00
1:55 AM,32.0,23.0,69,29.97,10.0,North,6.9,-,N/A,,Overcast,10,2012-12-08 07:55:00
2:15 AM,32.0,23.0,69,29.97,10.0,NNE,6.9,-,N/A,,Overcast,20,2012-12-08 08:15:00
2:35 AM,32.0,23.0,69,29.98,10.0,NNE,6.9,-,N/A,,Overcast,20,2012-12-08 08:35:00
2:55 AM,30.2,24.8,80,29.97,10.0,NNE,6.9,-,N/A,,Overcast,20,2012-12-08 08:55:00
3:15 AM,30.2,23.0,75,29.97,10.0,NNE,5.8,-,N/A,,Overcast,30,2012-12-08 09:15:00
3:35 AM,28.4,23.0,80,29.97,10.0,North,5.8,-,N/A,,Mostly Cloudy,350,2012-12-08 09:35:00
3:55 AM,26.6,21.2,80,29.97,10.0,North,5.8,-,N/A,,Partly Cloudy,360,2012-12-08 09:55:00
4:15 AM,24.8,21.2,86,29.98,10.0,Calm,Calm,-,N/A,,Partly Cloudy,0,2012-12-08 10:15:00
4:35 AM,26.6,21.2,80,29.98,10.0,Calm,Calm,-,N/A,,Mostly Cloudy,0,2012-12-08 10:35:00
4:55 AM,23.0,19.4,86,29.98,10.0,Calm,Calm,-,N/A,,Overcast,0,2012-12-08 10:55:00
5:15 AM,21.2,17.6,86,29.98,10.0,Calm,Calm,-,N/A,,Partly Cloudy,0,2012-12-08 11:15:00
5:35 AM,21.2,19.4,93,29.98,10.0,NW,3.5,-,N/A,,Clear,320,2012-12-08 11:35:00
5:55 AM,21.2,19.4,93,29.99,10.0,NW,5.8,-,N/A,,Clear,310,2012-12-08 11:55:00
6:15 AM,19.4,15.8,86,29.98,10.0,NNW,4.6,-,N/A,,Clear,330,2012-12-08 12:15:00
6:35 AM,21.2,19.4,93,29.99,10.0,NNW,3.5,-,N/A,,Clear,330,2012-12-08 12:35:00
6:55 AM,21.2,19.4,93,30.00,10.0,Calm,Calm,-,N/A,,Clear,0,2012-12-08 12:55:00
7:15 AM,19.4,17.6,93,29.99,7.0,Calm,Calm,-,N/A,,Clear,0,2012-12-08 13:15:00
7:35 AM,17.6,15.8,93,29.99,9.0,Calm,Calm,-,N/A,,Clear,0,2012-12-08 13:35:00
7:55 AM,17.6,15.8,93,29.99,7.0,Calm,Calm,-,N/A,,Clear,0,2012-12-08 13:55:00
8:15 AM,19.4,14.0,80,29.99,10.0,Calm,Calm,-,N/A,,Clear,0,2012-12-08 14:15:00
8:35 AM,21.2,17.6,86,30.00,9.0,Calm,Calm,-,N/A,,Clear,0,2012-12-08 14:35:00
8:55 AM,23.0,21.2,93,30.00,9.0,Calm,Calm,-,N/A,,Clear,0,2012-12-08 14:55:00
9:15 AM,24.8,23.0,93,30.00,9.0,NE,3.5,-,N/A,,Clear,40,2012-12-08 15:15:00
9:35 AM,28.4,24.8,86,30.01,10.0,ENE,5.8,-,N/A,,Clear,60,2012-12-08 15:35:00
9:55 AM,30.2,24.8,80,30.01,10.0,East,8.1,-,N/A,,Clear,90,2012-12-08 15:55:00
10:15 AM,30.2,24.8,80,30.01,10.0,Variable,6.9,-,N/A,,Clear,0,2012-12-08 16:15:00
10:35 AM,32.0,24.8,75,30.01,10.0,ESE,8.1,-,N/A,,Clear,120,2012-12-08 16:35:00
10:55 AM,32.0,23.0,69,30.00,10.0,ESE,8.1,-,N/A,,Clear,110,2012-12-08 16:55:00
11:15 AM,33.8,23.0,65,30.00,10.0,SE,8.1,-,N/A,,Clear,130,2012-12-08 17:15:00
11:35 AM,33.8,23.0,65,29.99,10.0,SE,4.6,-,N/A,,Clear,130,2012-12-08 17:35:00
11:55 AM,33.8,23.0,65,29.98,10.0,SE,6.9,-,N/A,,Clear,130,2012-12-08 17:55:00
12:15 PM,33.8,23.0,65,29.97,10.0,ESE,6.9,-,N/A,,Clear,110,2012-12-08 18:15:00
12:35 PM,35.6,23.0,60,29.97,10.0,SE,6.9,-,N/A,,Clear,130,2012-12-08 18:35:00
12:55 PM,35.6,23.0,60,29.96,10.0,SSE,8.1,-,N/A,,Clear,150,2012-12-08 18:55:00
1:15 PM,35.6,23.0,60,29.95,10.0,SE,11.5,-,N/A,,Clear,130,2012-12-08 19:15:00
1:35 PM,35.6,24.8,65,29.95,10.0,SE,10.4,-,N/A,,Clear,140,2012-12-08 19:35:00
1:55 PM,35.6,23.0,60,29.93,10.0,SE,10.4,17.3,N/A,,Clear,130,2012-12-08 19:55:00
2:15 PM,35.6,24.8,65,29.93,10.0,ESE,11.5,-,N/A,,Clear,120,2012-12-08 20:15:00
2:35 PM,35.6,24.8,65,29.92,10.0,SE,10.4,-,N/A,,Clear,130,2012-12-08 20:35:00
2:55 PM,37.4,24.8,60,29.93,10.0,SE,12.7,-,N/A,,Clear,140,2012-12-08 20:55:00
3:15 PM,35.6,24.8,65,29.92,10.0,SE,12.7,-,N/A,,Clear,140,2012-12-08 21:15:00
3:35 PM,35.6,24.8,65,29.92,10.0,SE,13.8,-,N/A,,Clear,140,2012-12-08 21:35:00
3:55 PM,35.6,24.8,65,29.91,10.0,SE,13.8,-,N/A,,Mostly Cloudy,140,2012-12-08 21:55:00
4:15 PM,35.6,24.8,65,29.91,10.0,SE,11.5,-,N/A,,Mostly Cloudy,130,2012-12-08 22:15:00
4:35 PM,35.6,24.8,65,29.92,10.0,ESE,8.1,-,N/A,,Mostly Cloudy,120,2012-12-08 22:35:00
4:55 PM,35.6,26.6,70,29.91,10.0,ESE,9.2,-,N/A,,Overcast,120,2012-12-08 22:55:00
5:15 PM,35.6,26.6,70,29.91,10.0,ESE,10.4,-,N/A,,Overcast,120,2012-12-08 23:15:00
5:35 PM,35.6,26.6,70,29.91,10.0,ESE,8.1,-,N/A,,Overcast,120,2012-12-08 23:35:00
5:55 PM,35.6,26.6,70,29.92,10.0,ESE,9.2,-,N/A,,Overcast,120,2012-12-08 23:55:00
6:15 PM,35.6,26.6,70,29.93,10.0,SE,9.2,-,N/A,,Overcast,140,2012-12-09 00:15:00
6:35 PM,35.6,28.4,75,29.93,10.0,SE,11.5,-,N/A,,Overcast,130,2012-12-09 00:35:00
6:55 PM,35.6,28.4,75,29.92,9.0,SE,10.4,-,N/A,,Overcast,130,2012-12-09 00:55:00
7:15 PM,33.8,30.2,87,29.93,3.0,SE,12.7,-,N/A,Snow,Light Snow,130,2012-12-09 01:15:00
7:55 PM,33.8,32.0,93,29.92,1.8,SE,16.1,-,N/A,Snow,Light Snow,140,2012-12-09 01:55:00
8:15 PM,33.8,32.0,93,29.91,4.0,SE,11.5,-,N/A,Snow,Light Snow,130,2012-12-09 02:15:00
8:35 PM,33.8,32.0,93,29.92,2.0,SE,13.8,-,N/A,Snow,Light Snow,130,2012-12-09 02:35:00
8:55 PM,33.8,32.0,93,29.91,3.0,SE,15.0,-,N/A,,Overcast,140,2012-12-09 02:55:00
9:15 PM,33.8,32.0,93,29.90,3.0,SE,13.8,-,N/A,,Overcast,140,2012-12-09 03:15:00
9:35 PM,33.8,32.0,93,29.89,3.0,SE,16.1,-,N/A,,Overcast,130,2012-12-09 03:35:00
9:55 PM,32.0,32.0,100,29.88,3.0,SE,15.0,-,N/A,,Overcast,140,2012-12-09 03:55:00
10:35 PM,33.8,32.0,93,29.91,4.0,SSE,8.1,-,N/A,,Overcast,160,2012-12-09 04:35:00
10:55 PM,33.8,32.0,93,29.92,4.0,South,5.8,-,N/A,,Overcast,170,2012-12-09 04:55:00
11:15 PM,33.8,32.0,93,29.92,5.0,SSE,8.1,-,N/A,,Overcast,150,2012-12-09 05:15:00
11:35 PM,33.8,32.0,93,29.90,5.0,SSE,10.4,-,N/A,,Overcast,150,2012-12-09 05:35:00
11:55 PM,33.8,32.0,93,29.89,4.0,SE,8.1,-,N/A,,Overcast,140,2012-12-09 05:55:00